Location: Bratislava
(48.1500°N, 17.1170°E)
Time: 22:08:07
(UTC+01:00)

N. Korean satellite - Pass Details

Date: 27 January 2019
Orbit: 456 x 510 km, 97.2° (Epoch: 21 February)

Event Time Altitude Azimuth Distance (km) Brightness Sun altitude
Rises 06:05:37 0° 14° (NNE) 2,614 10.3 -13.5°
Reaches altitude 10° 06:07:44 10° 16° (NNE) 1,717 9.4 -13.1°
Maximum altitude 06:11:26 73° 102° (ESE) 523 6.8 -12.5°
Drops below altitude 10° 06:15:02 10° 187° (S) 1,673 9.4 -11.9°
Sets 06:17:04 0° 190° (S) 2,539 10.3 -11.6°
